Location: Mentone
(34.5413°N, 85.5351°W)
Time: 13:25:42
(UTC-05:00)

ADEOS Rocket - Visible Passes

Search period start: 25 August 2016 00:00
Search period end: 04 September 2016 00:00
Orbit: 859 x 1306 km, 98.7° (Epoch: 24 August)

Date Brightness Start Highest point End Pass type
(mag) Time Alt. Az. Time Alt. Az. Time Alt. Az.
25 Aug 5.9 03:10:38 10° ENE 03:14:16 14° E 03:17:52 10° ESE visible
25 Aug 3.7 04:52:41 10° NNE 05:00:28 86° ESE 05:08:11 10° SSW visible
26 Aug 4.8 04:04:19 10° NNE 04:11:30 40° E 04:18:34 10° SSE visible
27 Aug 5.8 03:17:33 10° NE 03:22:09 17° E 03:26:41 10° SE visible
27 Aug 3.6 05:00:26 10° NNE 05:08:14 84° WNW 05:15:54 10° SSW visible
28 Aug 4.5 04:11:55 10° NNE 04:19:20 46° E 04:26:33 10° S visible
29 Aug 5.7 03:24:43 10° NE 03:30:02 20° E 03:35:13 10° SE visible
29 Aug 3.6 05:08:13 10° N 05:15:59 74° WNW 05:23:34 10° SSW visible
30 Aug 4.3 04:19:33 10° NNE 04:27:09 53° E 04:34:28 10° S visible
31 Aug 5.5 03:32:02 10° NE 03:37:55 23° E 03:43:36 10° SE visible
31 Aug 3.6 05:16:02 10° N 05:23:44 65° WNW 05:31:11 10° SSW visible
01 Sep 4.0 04:27:14 10° NNE 04:34:57 61° E 04:42:20 10° S visible
02 Sep 5.3 03:39:27 10° NE 03:45:46 27° E 03:51:50 10° SSE visible
02 Sep 3.7 05:23:53 10° N 05:31:27 56° WNW 05:38:44 10° SSW visible
03 Sep 3.8 04:34:57 10° NNE 04:42:45 70° ESE 04:50:09 10° S visible
